Zurück zum Katalog

SL-14 DEB

AktivPO
NORAD 45301·DEBRIS·🇷🇺 Russia

Gestartet Aug 15, 1991 von Plesetsk Cosmodrome

Loading…

Nächste Überflüge (nächste 24 Stunden)

TLE

AktuellSource: Space-Track

Epoche: Sep 14, 2026, 03:07 UTC

1 45301U 91056AP  26257.13007172  .00000930  00000-0  10612-2 0  9991
2 45301  82.4965 312.4326 0173207 158.5291 202.3240 13.62761954325053

Verfolge SL-14 DEB in Echtzeit mit AllMySat

Download on the App Store